Home > Weather > Charlotte > Past weeks

Flag for U.S.A. Weather for the Past 2 Weeks in Charlotte, North Carolina, U.S.A.

Now
35 °F

Overcast.


Feels Like: 35 °F
Forecast: 22 / 35 °F
Wind: No wind

Location: Charlotte / Douglas International Airport

Current Time: Feb 12, 2016 at 9:32:17 PM

Latest Report: Feb 12, 2016 at 7:52 PM


Visibility: 10 mi

Pressure: 30.06 "Hg

Humidity: 70%

Dew point: 26 °F

Location of CharlotteLocation

Historic Weather in Charlotte — Graph

°F

Charlotte Temperature Yesterday

Maximum temperature yesterday: 47 °F (at 3:52 PM)
Minimum temperature yesterday: 20 °F (at 4:52 AM)
Average temperature yesterday: 34 °F

High & Low Weather Summary for the Past Weeks

 TemperatureHumidityPressure
High71 °F (Feb 1, 1:52 PM)97% (Feb 2, 4:52 AM)30.45 "Hg (Feb 2, 4:52 AM)
Low20 °F (Feb 11, 4:52 AM)18% (Jan 29, 3:52 PM)29.65 "Hg (Feb 8, 3:52 PM)
Average44 °F56%30.03 "Hg
* Reported Jan 28 7:52 PM — Feb 12 7:52 PM, Charlotte, Weather by CustomWeather, © 2016

Note: Actual official high and low records may vary slightly from our data, if they occured in-between our weather recording intervals... More about our weather records

Advertising

Charlotte Weather History for the Previous 24 Hours

 ConditionsComfort  
Time TempWeatherWind HumidityBarometerVisibility
7:52 PM
Fri, Feb 12
35 °FOvercast.No wind70%30.06 "Hg10 mi
6:52 PM33 °FPassing clouds.No wind70%30.05 "Hg10 mi
5:52 PM36 °FPartly sunny.5 mph62%30.04 "Hg10 mi
4:52 PM37 °FPartly sunny.No wind52%30.03 "Hg10 mi
3:52 PM36 °FOvercast.No wind52%30.04 "Hg10 mi
2:52 PM36 °FMostly cloudy.No wind50%30.05 "Hg10 mi
1:52 PM35 °FOvercast.No wind50%30.08 "Hg10 mi
12:52 PM32 °FOvercast.3 mph56%30.13 "Hg10 mi
11:57 AM30 °FLight snow. Mostly cloudy.No wind59%30.17 "Hg2 mi
10:52 AM33 °FMostly cloudy.5 mph32%30.20 "Hg10 mi
9:52 AM32 °FOvercast.7 mph32%30.21 "Hg10 mi
8:52 AM31 °FBroken clouds.8 mph33%30.22 "Hg10 mi
7:52 AM30 °FBroken clouds.8 mph34%30.22 "Hg10 mi
6:52 AM31 °FPartly cloudy.7 mph35%30.22 "Hg10 mi
5:52 AM31 °FPassing clouds.6 mph33%30.23 "Hg10 mi
4:52 AM32 °FPassing clouds.7 mph32%30.21 "Hg10 mi
3:52 AM31 °FPassing clouds.7 mph35%30.23 "Hg10 mi
2:52 AM33 °FPassing clouds.8 mph30%30.23 "Hg10 mi
1:52 AM33 °FPassing clouds.8 mph32%30.24 "Hg10 mi
12:52 AM34 °FPassing clouds.9 mph35%30.24 "Hg10 mi
11:52 PM
Thu, Feb 11
35 °FPassing clouds.9 mph36%30.24 "Hg10 mi
10:52 PM35 °FPassing clouds.7 mph44%30.24 "Hg10 mi
9:52 PM36 °FPassing clouds.7 mph44%30.25 "Hg10 mi
Weather by CustomWeather, © 2016

See weather overviewHow to use our weather pages